Location: D?br�wka Wielka
(51.8879°N, 19.4257°E)
Time: 07:02:12
(UTC+00:00)

Daily predictions for brighter satellites

Satellite Brightness Start Highest point End
(mag) Time Altitude Azimuth Time Altitude Azimuth Time Altitude Azimuth
Cosmos 1842 3.2 17:15:37 10° N 17:19:31 87° E 17:23:23 10° S
ISS -1.7 17:19:14 10° S 17:20:56 13° SE 17:22:39 10° ESE
NOSS 8 (F) 4.1 17:19:37 10° SSW 17:22:44 61° SE 17:25:44 10° NE
CZ-2C R/B 3.8 17:18:58 10° NE 17:23:13 22° E 17:27:30 10° SE
ARGOS 3.3 17:18:07 10° SE 17:23:19 53° ENE 17:28:33 10° N
Cosmos 990 Rocket 3.9 17:21:10 10° SSW 17:26:17 76° ESE 17:31:27 10° NNE
Meteor 2-11 Rocket 4.5 17:20:32 10° S 17:26:39 71° E 17:32:47 10° NNE
Cosmos 1025 Rocket 3.7 17:23:02 10° N 17:27:03 34° ENE 17:31:04 10° SE
Cosmos 1782 Rocket 3.6 17:25:42 10° S 17:30:04 65° E 17:34:30 10° NNE
Cosmos 2233 Rocket 4.0 17:24:27 10° S 17:30:42 89° E 17:36:56 10° N
Cosmos 1908 Rocket 3.9 17:27:48 10° SSW 17:32:09 72° WNW 17:36:34 10° N
Cosmos 1707 3.0 17:28:26 10° N 17:32:11 47° ENE 17:35:53 10° SSE
NOSS 3-2 (A) 4.1 17:27:05 10° NW 17:34:17 70° NE 17:42:32 10° ESE
Cosmos 1743 4.1 17:30:42 10° SSW 17:34:22 43° WNW 17:38:03 10° N
Nadezhda 4 Rocket 4.4 17:30:56 10° N 17:36:43 41° ENE 17:42:28 10° SE
NOSS 2-2 (C) 4.1 17:34:06 10° S 17:37:07 27° ESE 17:40:26 10° ENE
Ariane Rocket 3.3 17:34:45 10° SE 17:39:34 46° ENE 17:44:25 10° N
CZ-2C R/B 3.4 17:34:26 10° S 17:39:43 77° WSW 17:45:21 10° NNW
Cosmos 2263 Rocket 2.1 17:35:09 10° SSW 17:40:42 77° ESE 17:46:20 10° NNE
CREW DRAGON DEMO-1 DEB 2.7 17:40:40 10° W 17:43:43 88° S 17:46:07 15° E
SJ-6B 3.4 17:40:56 10° SE 17:44:20 34° ENE 17:47:47 10° N
USA 186 2.2 17:42:04 10° SE 17:45:03 41° ENE 17:48:10 10° N
Meteor 2-9 Rocket 4.3 17:40:12 10° S 17:46:04 89° ESE 17:51:53 10° NNE
Cosmos 1844 Rocket 3.7 17:43:37 10° SSE 17:47:56 23° ESE 17:52:15 10° NE
Cosmos 1975 Rocket 3.5 17:46:22 10° NNW 17:50:41 65° W 17:54:56 10° S
Lacrosse 4 Rocket 3.7 17:49:35 10° N 17:51:01 11° NNE 17:52:26 10° NE
FREGAT/IRIS 3.2 17:49:42 17° ESE 17:51:07 29° ENE 17:53:27 10° N
HJ-1C 4.0 17:49:30 10° S 17:52:44 58° W 17:56:02 10° NNW
Cosmos 2227 4.3 17:48:10 10° SSW 17:53:55 84° WNW 17:59:41 10° NNE
COSMO-SKYMED 1 4.4 17:50:11 10° N 17:54:09 35° WNW 17:58:06 10° SW
Cosmos 1943 4.3 17:49:22 10° NW 17:54:43 45° WSW 18:00:04 10° S
SPOT 3 Rocket 4.3 17:52:17 13° ESE 17:56:12 33° ENE 18:00:46 10° N
USA 234 4.3 17:51:40 10° ENE 17:56:37 22° SE 18:01:33 10° S
Cosmos 1898 Rocket 3.8 17:51:29 10° SSW 17:56:39 72° WNW 18:01:52 10° NNE
ATLAS CENTAUR R/B 3.6 17:54:59 10° WNW 17:57:50 19° NNW 18:00:37 10° NNE
USA 102 3.9 17:55:34 10° SSE 17:53:51 - SSE 18:00:29 23° SSE
Cosmos 1867 4.2 17:56:47 10° NW 18:02:09 57° SW 18:07:28 10° SSE
Cosmos 1833 Rocket 4.1 18:01:49 10° NNW 18:06:24 24° NE 18:09:44 15° E
MetOp-A 4.2 18:02:08 10° SSE 18:07:23 61° ENE 18:12:41 10° N
Resurs 01 Rocket 2.7 18:05:19 19° ESE 18:07:26 28° ENE 18:11:13 10° N
NOSS 3-2 (C) 4.0 18:01:50 10° NW 18:09:04 72° NE 18:15:36 18° ESE
Lacrosse 5 rocket 2.3 18:05:25 10° W 18:09:37 50° NNW 18:13:51 11° ENE
Cosmos 372 Rocket 4.0 18:05:58 10° S 18:11:07 62° ESE 18:16:17 10° NNE
IRS-1A Rocket 4.3 18:06:03 10° SSE 18:11:57 82° ENE 18:17:50 10° NNW
Sich 1 Rocket 3.7 18:08:10 10° SSW 18:12:40 81° W 18:17:15 10° N
MOS 1 Rocket 3.1 18:08:24 10° NNE 18:12:58 87° WNW 18:17:18 10° SSW
Meteor 1-12 Rocket 4.2 18:10:31 10° S 18:16:24 75° E 18:22:13 10° NNE
DMSP B5D2-2 4.3 18:12:46 10° NNE 18:17:53 47° E 18:22:59 10° S
OBJECT-B 1.1 18:19:21 31° ESE 18:20:27 46° ENE 18:23:35 10° N
Cosmos 2150 Rocket 4.2 18:15:57 10° S 18:21:07 50° ESE 18:26:23 10° NNE
Cosmos 1626 3.3 18:18:00 10° NNE 18:21:09 25° ENE 18:21:30 25° E
SJ 16-02 3.8 18:17:37 10° WSW 18:21:16 25° NW 18:24:56 10° N
Cosmos 1513 Rocket 4.5 18:17:39 10° S 18:23:56 90° S 18:30:09 10° N
ARIANE 5 R/B 3.8 18:23:29 22° E 18:24:29 25° ENE 18:28:00 10° N
Cosmos 2285 Rocket 4.5 18:18:59 10° SSE 18:24:40 36° E 18:30:23 10° NE
Cosmos 1937 Rocket 4.1 18:19:39 10° SW 18:24:50 59° WNW 18:30:00 10° NNE
Cosmos 1125 Rocket 3.9 18:24:17 10° S 18:29:13 40° ESE 18:34:11 10° NE
Okean 2 Rocket 3.2 18:26:43 10° SSW 18:31:13 80° W 18:35:44 10° N
Abrixas rocket 2.4 18:28:58 10° WSW 18:31:40 40° S 18:31:43 40° S
Cosmos 1464 Rocket 4.0 18:26:47 10° SSW 18:32:55 82° W 18:39:09 10° N
SL-08 RB Rocket 4.3 18:28:27 10° S 18:32:58 57° W 18:37:28 10° NNW
Okean 1 Rocket 3.5 18:31:11 26° SE 18:33:07 40° E 18:37:20 10° NNE
NOSS 2-2 (E) 3.2 18:30:25 10° SW 18:33:59 82° NW 18:38:15 10° NE
Cosmos 1092 Rocket 3.9 18:30:11 10° N 18:36:20 67° ENE 18:40:56 19° SSE
Meteor 2-13 Rocket 4.4 18:31:07 10° N 18:37:18 71° ENE 18:42:01 18° SSE
ERS-1 Rocket 4.5 18:37:26 19° ENE 18:38:21 20° NE 18:41:56 10° N
Cosmos 2195 Rocket 4.5 18:32:22 10° N 18:38:38 63° ENE 18:42:45 22° SSE
Meteor 2-5 Rocket 3.7 18:34:05 10° N 18:39:41 63° ENE 18:42:58 26° SSE
Cosmos 1300 Rocket 3.9 18:35:28 10° SSW 18:39:51 68° WNW 18:44:18 10° N
ATLAS 2AS CENTAUR R/B 3.7 18:33:30 10° SSE 18:39:54 28° ESE 18:46:16 10° ENE
Cosmos 2026 Rocket 4.1 18:36:19 10° N 18:42:36 59° ENE 18:46:19 25° SE
NOSS 2-2 (D) 3.1 18:39:07 10° SW 18:42:39 85° NW 18:46:50 10° NE
Resurs 1-3 3.5 18:41:32 28° SSE 18:43:49 79° ENE 18:48:14 10° NNW
CENTAUR R/B 3.2 18:38:28 10° NW 18:46:23 87° SW 18:51:58 26° SE
BREEZE-M R/B 3.9 18:40:05 10° WSW 18:48:20 44° S 18:48:53 41° SE
Cosmos 2082 Rocket 3.4 18:43:41 10° NNW 18:48:29 28° NE 18:50:26 23° ENE
Cosmos 1805 3.2 18:49:00 49° SE 18:49:38 58° E 18:53:30 10° NNE
Cosmos 1674 2.8 18:46:28 10° NNW 18:50:20 72° W 18:52:09 29° S
H-2A R/B 4.1 18:46:12 10° SSW 18:50:22 26° W 18:54:39 10° NW
ATLAS 3B R/B 3.1 18:46:56 10° NW 18:53:35 54° NE 18:56:56 30° E
Cosmos 1428 Rocket 4.5 18:48:07 10° N 18:54:24 67° ENE 18:57:36 30° SSE
Cosmos 1536 Rocket 4.5 18:50:27 10° NNW 18:54:44 48° W 18:58:59 10° SSW
Exosat Rocket 3.5 18:50:42 10° S 18:56:02 57° ESE 19:00:57 10° NE
ISS -2.7 18:53:54 10° SW 18:56:08 34° SSW 18:56:08 34° SSW
USA 238 DEB 4.2 18:50:36 10° NW 18:57:38 59° SW 19:02:30 22° SSE
USA 238 4.2 18:50:42 10° NW 18:57:45 59° SW 19:02:35 22° SSE
COSMOS 2406 3.4 18:53:46 10° NNW 18:59:22 55° NE 19:01:06 40° ESE
CZ-2C R/B 3.7 18:55:48 10° NNE 19:00:11 55° ESE 19:00:45 51° SE
Cosmos 1892 Rocket 3.8 18:56:12 10° N 19:00:24 46° ENE 19:00:29 46° ENE
Cosmos 1733 3.7 19:01:22 45° NE 19:01:22 45° NE 19:04:22 10° NNE
Cosmos 2279 Rocket 4.4 19:00:02 36° ESE 19:01:09 39° E 19:06:54 10° NNE
Meteor 1-24 Rocket 3.6 18:57:18 10° N 19:02:47 73° ENE 19:04:56 38° SSE
SPOT 1/Viking Rocket 4.0 19:02:43 38° E 19:03:31 41° ENE 19:08:21 10° N
CZ-2C R/B 2.9 18:58:32 10° NNE 19:04:02 72° WNW 19:09:37 10° SSW
Cosmos 1269 Rocket 3.9 19:00:34 10° NNW 19:05:56 80° ENE 19:07:34 46° SE
SL-14 R/B 3.2 19:03:58 10° N 19:07:48 69° ENE 19:07:48 69° ENE
Spot 2 Rocket 3.6 19:10:54 48° E 19:11:34 52° ENE 19:16:28 10° N
MetOp-B 4.0 19:20:19 52° SSE 19:21:41 82° ENE 19:27:04 10° NNW
Cosmos 2278 Rocket 4.2 19:26:08 13° NE 19:26:08 13° NE 19:26:56 10° NE
Cosmos 1844 3.6 19:16:49 10° SSW 19:22:31 85° ESE 19:28:12 10° NNE
Terra 3.1 19:23:42 26° NE 19:23:42 26° NE 19:27:11 10° N
Cosmos 1766 3.3 19:23:36 76° W 19:23:37 76° WNW 19:27:35 10° N
Cosmos 2263 Rocket 4.2 19:20:30 10° W 19:25:14 27° NW 19:30:01 10° NNE
NOSS 2-2 (C) 4.4 19:23:59 10° WSW 19:27:28 42° NNW 19:31:37 10° NE
Lacrosse 4 Rocket 2.5 19:27:08 10° NNW 19:30:19 33° NNE 19:30:19 33° NNE
Okean 1-7 Rocket 3.7 19:26:39 10° N 19:30:52 65° NE 19:30:52 65° NE
Cosmos 1844 Rocket 2.8 19:25:44 10° SW 19:31:17 72° WNW 19:36:55 10° NNE
SPOT 3 Rocket 4.4 19:32:57 26° SSW 19:35:29 45° W 19:40:26 10° NNW
ATLAS CENTAUR R/B 4.0 19:36:38 10° NNW 19:38:04 12° N 19:39:29 10° NNE
Cosmos 2251 Rocket 3.9 19:34:08 10° NNW 19:39:23 51° ENE 19:39:25 50° ENE
USA 234 3.1 19:37:13 31° ENE 19:40:31 64° SE 19:47:01 10° SW
IGS 5A 3.8 19:44:06 62° NW 19:44:06 62° NW 19:47:39 10° NNW
Resurs 01 Rocket 2.6 19:42:54 38° SW 19:43:46 43° W 19:48:03 10° NNW
Cosmos 2266 Rocket 4.0 19:38:52 10° N 19:44:50 56° ENE 19:44:59 56° E
Cosmos 1340 Rocket 4.2 19:48:51 33° N 19:48:51 33° N 19:51:10 10° N
SPOT 5 3.3 19:49:28 56° NE 19:49:28 56° NE 19:54:17 10° N
Lacrosse 5 rocket 2.3 19:45:09 10° WNW 19:49:25 45° N 19:49:28 45° N
Cosmos 1833 Rocket 2.5 19:45:26 10° NNW 19:51:08 88° NE 19:51:25 82° SE
OBJECT-B 3.7 19:52:33 13° W 19:53:04 14° W 19:54:50 10° WNW
Cosmos 1655 Rocket 3.8 19:49:45 10° N 19:56:04 83° E 19:56:43 72° SE
Cosmos 1626 3.9 19:53:08 10° NNW 19:56:03 29° W 19:56:03 29° W
Cosmos 1455 Rocket 4.3 20:02:24 35° N 20:02:24 35° N 20:05:00 10° N
ARIANE 5 R/B 3.4 20:01:02 46° W 20:01:02 46° W 20:04:56 10° NNW
NOSS 3-4 (A) 4.5 20:09:56 33° NE 20:09:56 33° NE 20:13:24 10° NE
Landsat 7 4.5 20:09:07 50° W 20:09:07 50° W 20:13:35 10° NNW
ERS-1 Rocket 3.3 20:17:26 62° NNW 20:17:26 62° NNW 20:21:40 10° NNW
Cosmos 2098 Rocket 4.3 20:22:10 10° NNW 20:29:18 65° W 20:30:00 61° SW
ATLAS 2AS CENTAUR R/B 2.9 20:22:06 10° SW 20:30:07 86° SE 20:37:58 10° NE
Cosmos 2082 Rocket 2.5 20:27:32 10° NNW 20:32:16 62° NW 20:32:16 62° NW
CENTAUR R/B 4.4 20:29:45 10° WNW 20:36:35 30° WSW 20:39:09 26° SW
COSMOS 2406 4.5 20:38:27 10° NW 20:43:09 32° W 20:43:09 32° W
ATLAS 3B R/B 3.1 20:37:46 10° NW 20:44:10 53° WSW 20:44:10 53° WSW
Terra 3.4 21:02:36 32° NW 21:02:36 32° NW 21:05:23 10° NNW
Cosmos 2278 Rocket 3.3 21:07:57 39° N 21:07:57 39° N 21:11:36 10° NNE
Lacrosse 4 Rocket 4.2 21:05:49 10° NW 21:06:37 15° NW 21:06:37 15° NW
ATLAS CENTAUR R/B 4.5 21:15:42 10° NNW 21:15:57 11° NNW 21:15:57 11° NNW
USA 234 3.6 21:17:08 10° ENE 21:24:44 58° WNW 21:30:07 10° W
Lacrosse 5 rocket 4.3 21:24:27 10° WNW 21:25:05 14° WNW 21:25:05 14° WNW
CZ-4C R/B 4.2 21:49:08 23° NE 21:49:08 23° NE 21:51:25 10° NE
USA 229 DEB 4.4 21:46:02 10° NW 21:52:55 50° NNE 21:53:20 50° NE
USA 229 4.4 21:46:07 10° NW 21:53:00 50° NNE 21:53:26 49° NE
Cosmos 1943 Rocket 4.0 22:16:55 25° NE 22:16:55 25° NE 22:19:07 10° NNE
ATLAS 2AS CENTAUR R/B 3.9 22:14:20 10° W 22:21:54 44° NNW 22:29:14 10° NE
Cosmos 2297 Rocket 4.2 22:26:08 10° NNW 22:30:32 22° NE 22:31:23 21° NE
COSMOS 2455 4.1 22:39:35 38° N 22:39:35 38° N 22:44:02 10° NNE
Cosmos 2369 Rocket 3.9 22:44:15 28° NNE 22:44:15 28° NNE 22:46:52 10° NNE
NOSS 3-1 (C) 4.3 22:38:47 10° NW 22:44:17 58° NW 22:44:17 58° NW
Cosmos 2278 Rocket 4.3 22:49:46 18° NW 22:51:11 20° NNW 22:55:16 10° NNE
SL-16 R/B 3.8 22:58:38 33° ENE 22:58:38 33° ENE 23:04:03 10° N
USA 234 3.8 22:59:56 10° E 23:12:13 12° WNW 23:12:42 10° WNW
Cosmos 2227 Rocket 3.5 23:23:08 10° NNW 23:27:48 35° NNE 23:27:48 35° NNE
CZ-4C R/B 3.5 23:34:17 37° NNW 23:34:22 37° NNW 23:40:33 10° NE
Cosmos 2219 4.4 23:38:05 10° NNW 23:41:52 39° N 23:41:52 39° N
